Time,TemperatureF,DewpointF,PressureIn,WindDirection,WindDirectionDegrees,WindSpeedMPH,WindSpeedGustMPH,Humidity,HourlyPrecipIn,Conditions,Clouds,dailyrainin,SoftwareType,DateUTC
2013-05-25 00:02:00,53.0,37.0,30.19,NW,319,0.0,-999.0,55,-99.99,,,-99.99,,2013-05-25 04:02:00,
2013-05-25 00:13:00,53.0,37.0,30.19,NW,319,0.0,-999.0,55,-99.99,,,-99.99,,2013-05-25 04:13:00,
2013-05-25 00:23:00,52.0,38.0,30.20,WNW,294,0.0,-999.0,59,-99.99,,,-99.99,,2013-05-25 04:23:00,
2013-05-25 00:33:00,52.0,38.0,30.20,NW,320,0.0,-999.0,59,-99.99,,,-99.99,,2013-05-25 04:33:00,
2013-05-25 00:43:00,52.0,38.0,30.20,NW,320,0.0,-999.0,59,-99.99,,,-99.99,,2013-05-25 04:43:00,
2013-05-25 00:52:00,52.0,39.0,30.20,NW,321,0.0,-999.0,60,-99.99,,,-99.99,,2013-05-25 04:52:00,
2013-05-25 01:02:00,52.0,39.0,30.20,West,271,0.0,-999.0,60,-99.99,,,-99.99,,2013-05-25 05:02:00,
2013-05-25 01:12:00,52.0,39.0,30.20,West,271,0.0,-999.0,60,-99.99,,,-99.99,,2013-05-25 05:12:00,
2013-05-25 01:22:00,50.0,38.0,30.21,West,274,0.0,-999.0,64,-99.99,,,-99.99,,2013-05-25 05:22:00,
2013-05-25 01:32:00,50.0,39.0,30.21,WNW,286,0.0,-999.0,65,-99.99,,,-99.99,,2013-05-25 05:32:00,
2013-05-25 01:43:00,50.0,39.0,30.21,WNW,286,0.0,-999.0,65,-99.99,,,-99.99,,2013-05-25 05:43:00,
2013-05-25 01:52:00,50.0,38.0,30.22,West,281,0.0,-999.0,63,-99.99,,,-99.99,,2013-05-25 05:52:00,
2013-05-25 02:02:00,50.0,38.0,30.21,West,277,0.0,-999.0,64,-99.99,,,-99.99,,2013-05-25 06:02:00,
2013-05-25 02:12:00,49.0,37.0,30.21,NW,314,0.0,-999.0,64,-99.99,,,-99.99,,2013-05-25 06:12:00,
2013-05-25 02:22:00,49.0,37.0,30.21,NW,314,0.0,-999.0,64,-99.99,,,-99.99,,2013-05-25 06:22:00,
2013-05-25 02:32:00,49.0,38.0,30.22,WNW,297,0.0,-999.0,65,-99.99,,,-99.99,,2013-05-25 06:32:00,
2013-05-25 02:42:00,49.0,38.0,30.22,WNW,297,0.0,-999.0,65,-99.99,,,-99.99,,2013-05-25 06:42:00,
2013-05-25 02:52:00,49.0,38.0,30.21,WNW,302,0.0,-999.0,65,-99.99,,,-99.99,,2013-05-25 06:52:00,
2013-05-25 03:01:00,50.0,38.0,30.21,West,281,0.0,-999.0,64,-99.99,,,-99.99,,2013-05-25 07:01:00,
2013-05-25 03:11:00,50.0,38.0,30.21,West,281,0.0,-999.0,64,-99.99,,,-99.99,,2013-05-25 07:11:00,
2013-05-25 03:22:00,50.0,38.0,30.21,West,271,0.0,-999.0,63,-99.99,,,-99.99,,2013-05-25 07:22:00,
2013-05-25 03:32:00,50.0,38.0,30.20,North,349,0.0,-999.0,62,-99.99,,,-99.99,,2013-05-25 07:32:00,
2013-05-25 03:42:00,50.0,38.0,30.20,North,349,0.0,-999.0,62,-99.99,,,-99.99,,2013-05-25 07:42:00,
2013-05-25 03:52:00,50.0,37.0,30.21,West,269,0.0,-999.0,61,-99.99,,,-99.99,,2013-05-25 07:52:00,
2013-05-25 04:02:00,50.0,38.0,30.22,NW,319,0.0,-999.0,62,-99.99,,,-99.99,,2013-05-25 08:02:00,
2013-05-25 04:11:00,50.0,38.0,30.22,NW,319,0.0,-999.0,62,-99.99,,,-99.99,,2013-05-25 08:11:00,
2013-05-25 04:22:00,50.0,37.0,30.21,NW,321,1.0,-999.0,61,-99.99,,,-99.99,,2013-05-25 08:22:00,
2013-05-25 04:32:00,50.0,37.0,30.22,NW,304,1.0,-999.0,61,-99.99,,,-99.99,,2013-05-25 08:32:00,
2013-05-25 04:42:00,50.0,37.0,30.22,NW,304,1.0,-999.0,61,-99.99,,,-99.99,,2013-05-25 08:42:00,
2013-05-25 04:51:00,50.0,37.0,30.22,NNW,329,1.0,-999.0,60,-99.99,,,-99.99,,2013-05-25 08:51:00,
2013-05-25 05:02:00,50.0,37.0,30.21,NNW,329,2.0,-999.0,60,-99.99,,,-99.99,,2013-05-25 09:02:00,
2013-05-25 05:11:00,50.0,37.0,30.21,NNW,329,2.0,-999.0,60,-99.99,,,-99.99,,2013-05-25 09:11:00,
2013-05-25 05:21:00,50.0,37.0,30.21,North,5,2.0,-999.0,60,-99.99,,,-99.99,,2013-05-25 09:21:00,
2013-05-25 05:33:00,50.0,37.0,30.22,WNW,298,1.0,-999.0,60,-99.99,,,-99.99,,2013-05-25 09:33:00,
2013-05-25 05:43:00,50.0,37.0,30.22,WNW,298,1.0,-999.0,60,-99.99,,,-99.99,,2013-05-25 09:43:00,
2013-05-25 05:52:00,50.0,37.0,30.21,NNW,333,1.0,-999.0,60,-99.99,,,-99.99,,2013-05-25 09:52:00,
2013-05-25 06:03:00,49.0,37.0,30.20,WNW,287,0.0,-999.0,63,-99.99,,,-99.99,,2013-05-25 10:03:00,
2013-05-25 06:12:00,49.0,37.0,30.20,WNW,287,0.0,-999.0,63,-99.99,,,-99.99,,2013-05-25 10:12:00,
2013-05-25 06:23:00,49.0,36.0,30.20,North,10,0.0,-999.0,61,-99.99,,,-99.99,,2013-05-25 10:23:00,
2013-05-25 06:33:00,49.0,37.0,30.20,NW,325,0.0,-999.0,63,-99.99,,,-99.99,,2013-05-25 10:33:00,
2013-05-25 06:42:00,49.0,37.0,30.20,NW,325,0.0,-999.0,63,-99.99,,,-99.99,,2013-05-25 10:42:00,
2013-05-25 06:52:00,49.0,37.0,30.22,ESE,109,0.0,-999.0,63,-99.99,,,-99.99,,2013-05-25 10:52:00,
2013-05-25 07:03:00,50.0,37.0,30.22,SSE,163,2.0,-999.0,60,-99.99,,,-99.99,,2013-05-25 11:03:00,
2013-05-25 07:12:00,50.0,37.0,30.22,SSE,163,2.0,-999.0,60,-99.99,,,-99.99,,2013-05-25 11:12:00,
2013-05-25 07:22:00,50.0,37.0,30.21,NW,306,1.0,-999.0,60,-99.99,,,-99.99,,2013-05-25 11:22:00,
2013-05-25 07:32:00,50.0,37.0,30.22,WNW,283,1.0,-999.0,60,-99.99,,,-99.99,,2013-05-25 11:32:00,
2013-05-25 07:42:00,50.0,37.0,30.22,WNW,283,1.0,-999.0,60,-99.99,,,-99.99,,2013-05-25 11:42:00,
2013-05-25 07:52:00,50.0,37.0,30.22,SE,130,1.0,-999.0,60,-99.99,,,-99.99,,2013-05-25 11:52:00,
2013-05-25 08:02:00,51.0,37.0,30.22,East,82,2.0,-999.0,59,-99.99,,,-99.99,,2013-05-25 12:02:00,
2013-05-25 08:12:00,51.0,37.0,30.22,East,82,2.0,-999.0,59,-99.99,,,-99.99,,2013-05-25 12:12:00,
2013-05-25 08:22:00,51.0,37.0,30.23,East,98,1.0,-999.0,58,-99.99,,,-99.99,,2013-05-25 12:22:00,
2013-05-25 08:32:00,51.0,37.0,30.24,ESE,114,1.0,-999.0,58,-99.99,,,-99.99,,2013-05-25 12:32:00,
2013-05-25 08:42:00,51.0,37.0,30.24,ESE,114,1.0,-999.0,58,-99.99,,,-99.99,,2013-05-25 12:42:00,
2013-05-25 08:52:00,51.0,37.0,30.25,West,277,0.0,-999.0,58,-99.99,,,-99.99,,2013-05-25 12:52:00,
2013-05-25 09:02:00,52.0,37.0,30.26,South,184,0.0,-999.0,57,-99.99,,,-99.99,,2013-05-25 13:02:00,
2013-05-25 09:11:00,52.0,37.0,30.26,South,184,0.0,-999.0,57,-99.99,,,-99.99,,2013-05-25 13:11:00,
2013-05-25 09:22:00,53.0,38.0,30.27,WNW,298,1.0,-999.0,56,-99.99,,,-99.99,,2013-05-25 13:22:00,
2013-05-25 09:32:00,54.0,39.0,30.28,ENE,76,1.0,-999.0,57,-99.99,,,-99.99,,2013-05-25 13:32:00,
2013-05-25 09:42:00,54.0,39.0,30.28,ENE,76,1.0,-999.0,57,-99.99,,,-99.99,,2013-05-25 13:42:00,
2013-05-25 09:52:00,55.0,40.0,30.28,SW,214,0.0,-999.0,57,-99.99,,,-99.99,,2013-05-25 13:52:00,
2013-05-25 10:02:00,56.0,41.0,30.27,SSW,192,0.0,-999.0,58,-99.99,,,-99.99,,2013-05-25 14:02:00,
2013-05-25 10:11:00,56.0,41.0,30.27,SSW,192,0.0,-999.0,58,-99.99,,,-99.99,,2013-05-25 14:11:00,
2013-05-25 10:22:00,58.0,37.0,30.26,South,178,0.0,-999.0,45,-99.99,,,-99.99,,2013-05-25 14:22:00,
2013-05-25 10:32:00,60.0,42.0,30.26,West,267,0.0,-999.0,51,-99.99,,,-99.99,,2013-05-25 14:32:00,
2013-05-25 10:42:00,60.0,42.0,30.26,West,267,0.0,-999.0,51,-99.99,,,-99.99,,2013-05-25 14:42:00,
2013-05-25 10:52:00,60.0,42.0,30.26,West,267,0.0,-999.0,51,-99.99,,,-99.99,,2013-05-25 14:52:00,
2013-05-25 11:01:00,63.0,40.0,30.28,NW,311,0.0,-999.0,43,-99.99,,,-99.99,,2013-05-25 15:01:00,
2013-05-25 11:12:00,63.0,40.0,30.28,NW,311,0.0,-999.0,43,-99.99,,,-99.99,,2013-05-25 15:12:00,
2013-05-25 11:22:00,63.0,37.0,30.29,NNW,342,0.0,-999.0,38,-99.99,,,-99.99,,2013-05-25 15:22:00,
2013-05-25 11:33:00,65.0,40.0,30.28,SSE,161,0.0,-999.0,40,-99.99,,,-99.99,,2013-05-25 15:33:00,
2013-05-25 11:43:00,65.0,40.0,30.28,SSE,161,0.0,-999.0,40,-99.99,,,-99.99,,2013-05-25 15:43:00,
2013-05-25 11:53:00,66.0,38.0,30.27,WSW,240,0.0,-999.0,35,-99.99,,,-99.99,,2013-05-25 15:53:00,
2013-05-25 12:03:00,66.0,38.0,30.25,NW,325,0.0,-999.0,35,-99.99,,,-99.99,,2013-05-25 16:03:00,
2013-05-25 12:12:00,66.0,38.0,30.25,NW,325,0.0,-999.0,35,-99.99,,,-99.99,,2013-05-25 16:12:00,
2013-05-25 12:23:00,67.0,38.0,30.25,NNW,348,0.0,-999.0,34,-99.99,,,-99.99,,2013-05-25 16:23:00,
2013-05-25 12:32:00,67.0,42.0,30.25,NW,315,0.0,-999.0,40,-99.99,,,-99.99,,2013-05-25 16:32:00,
2013-05-25 12:42:00,67.0,42.0,30.25,NW,315,0.0,-999.0,40,-99.99,,,-99.99,,2013-05-25 16:42:00,
2013-05-25 12:52:00,68.0,36.0,30.24,NE,55,0.0,-999.0,31,-99.99,,,-99.99,,2013-05-25 16:52:00,
2013-05-25 13:03:00,69.0,39.0,30.24,NW,311,0.0,-999.0,34,-99.99,,,-99.99,,2013-05-25 17:03:00,
2013-05-25 13:11:00,69.0,39.0,30.24,NW,311,0.0,-999.0,34,-99.99,,,-99.99,,2013-05-25 17:11:00,
2013-05-25 13:22:00,69.0,41.0,30.24,SSW,206,0.0,-999.0,36,-99.99,,,-99.99,,2013-05-25 17:22:00,
2013-05-25 13:32:00,70.0,41.0,30.24,WNW,302,0.0,-999.0,35,-99.99,,,-99.99,,2013-05-25 17:32:00,
2013-05-25 13:42:00,70.0,41.0,30.24,WNW,302,0.0,-999.0,35,-99.99,,,-99.99,,2013-05-25 17:42:00,
2013-05-25 13:52:00,71.0,43.0,30.23,South,182,0.0,-999.0,36,-99.99,,,-99.99,,2013-05-25 17:52:00,
2013-05-25 14:02:00,72.0,41.0,30.22,SW,224,0.0,-999.0,32,-99.99,,,-99.99,,2013-05-25 18:02:00,
2013-05-25 14:11:00,72.0,41.0,30.22,SW,224,0.0,-999.0,32,-99.99,,,-99.99,,2013-05-25 18:11:00,
2013-05-25 14:22:00,73.0,42.0,30.21,NW,317,0.0,-999.0,33,-99.99,,,-99.99,,2013-05-25 18:22:00,
2013-05-25 14:32:00,73.0,41.0,30.20,West,279,1.0,-999.0,31,-99.99,,,-99.99,,2013-05-25 18:32:00,
2013-05-25 14:42:00,73.0,41.0,30.20,West,279,1.0,-999.0,31,-99.99,,,-99.99,,2013-05-25 18:42:00,
2013-05-25 14:52:00,73.0,39.0,30.19,NW,311,1.0,-999.0,29,-99.99,,,-99.99,,2013-05-25 18:52:00,
2013-05-25 15:02:00,74.0,40.0,30.19,WNW,289,0.0,-999.0,29,-99.99,,,-99.99,,2013-05-25 19:02:00,
2013-05-25 15:11:00,74.0,40.0,30.19,WNW,289,0.0,-999.0,29,-99.99,,,-99.99,,2013-05-25 19:11:00,
2013-05-25 15:22:00,74.0,40.0,30.18,South,170,0.0,-999.0,29,-99.99,,,-99.99,,2013-05-25 19:22:00,
2013-05-25 15:32:00,72.0,40.0,30.18,WNW,285,1.0,-999.0,31,-99.99,,,-99.99,,2013-05-25 19:32:00,
2013-05-25 15:42:00,72.0,40.0,30.18,WNW,285,1.0,-999.0,31,-99.99,,,-99.99,,2013-05-25 19:42:00,
2013-05-25 15:52:00,72.0,41.0,30.18,NW,313,1.0,-999.0,32,-99.99,,,-99.99,,2013-05-25 19:52:00,
2013-05-25 16:02:00,74.0,43.0,30.19,NW,308,0.0,-999.0,33,-99.99,,,-99.99,,2013-05-25 20:02:00,
2013-05-25 16:11:00,74.0,43.0,30.19,NW,308,0.0,-999.0,33,-99.99,,,-99.99,,2013-05-25 20:11:00,
2013-05-25 16:22:00,71.0,40.0,30.18,West,278,0.0,-999.0,33,-99.99,,,-99.99,,2013-05-25 20:22:00,
2013-05-25 16:32:00,72.0,41.0,30.19,NW,304,0.0,-999.0,33,-99.99,,,-99.99,,2013-05-25 20:32:00,
2013-05-25 16:42:00,72.0,41.0,30.19,NW,304,0.0,-999.0,33,-99.99,,,-99.99,,2013-05-25 20:42:00,
2013-05-25 16:52:00,72.0,42.0,30.19,SSW,205,1.0,-999.0,34,-99.99,,,-99.99,,2013-05-25 20:52:00,
2013-05-25 17:02:00,72.0,40.0,30.18,West,265,1.0,-999.0,31,-99.99,,,-99.99,,2013-05-25 21:02:00,
2013-05-25 17:11:00,72.0,40.0,30.18,West,265,1.0,-999.0,31,-99.99,,,-99.99,,2013-05-25 21:11:00,
2013-05-25 17:21:00,71.0,41.0,30.17,West,279,0.0,-999.0,34,-99.99,,,-99.99,,2013-05-25 21:21:00,
2013-05-25 17:33:00,72.0,39.0,30.16,NW,315,0.0,-999.0,30,-99.99,,,-99.99,,2013-05-25 21:33:00,
2013-05-25 17:43:00,72.0,39.0,30.16,NW,315,0.0,-999.0,30,-99.99,,,-99.99,,2013-05-25 21:43:00,
2013-05-25 17:53:00,71.0,38.0,30.17,WNW,303,0.0,-999.0,30,-99.99,,,-99.99,,2013-05-25 21:53:00,
2013-05-25 18:03:00,72.0,41.0,30.17,NW,319,0.0,-999.0,32,-99.99,,,-99.99,,2013-05-25 22:03:00,
2013-05-25 18:13:00,72.0,41.0,30.17,NW,319,0.0,-999.0,32,-99.99,,,-99.99,,2013-05-25 22:13:00,
2013-05-25 18:23:00,71.0,38.0,30.17,WNW,282,0.0,-999.0,30,-99.99,,,-99.99,,2013-05-25 22:23:00,
2013-05-25 18:33:00,71.0,34.0,30.17,NW,317,1.0,-999.0,26,-99.99,,,-99.99,,2013-05-25 22:33:00,
2013-05-25 18:42:00,71.0,34.0,30.17,NW,317,1.0,-999.0,26,-99.99,,,-99.99,,2013-05-25 22:42:00,
2013-05-25 18:52:00,70.0,34.0,30.16,NW,311,1.0,-999.0,26,-99.99,,,-99.99,,2013-05-25 22:52:00,
2013-05-25 19:02:00,70.0,34.0,30.17,NW,321,0.0,-999.0,27,-99.99,,,-99.99,,2013-05-25 23:02:00,
2013-05-25 19:12:00,70.0,34.0,30.17,NW,321,0.0,-999.0,27,-99.99,,,-99.99,,2013-05-25 23:12:00,
2013-05-25 19:22:00,69.0,34.0,30.17,NW,304,0.0,-999.0,27,-99.99,,,-99.99,,2013-05-25 23:22:00,
2013-05-25 19:32:00,68.0,33.0,30.17,WSW,257,0.0,-999.0,27,-99.99,,,-99.99,,2013-05-25 23:32:00,
2013-05-25 19:42:00,68.0,33.0,30.17,WSW,257,0.0,-999.0,27,-99.99,,,-99.99,,2013-05-25 23:42:00,
2013-05-25 19:52:00,67.0,32.0,30.18,WNW,294,0.0,-999.0,27,-99.99,,,-99.99,,2013-05-25 23:52:00,
2013-05-25 20:02:00,66.0,35.0,30.18,West,269,0.0,-999.0,32,-99.99,,,-99.99,,2013-05-26 00:02:00,
2013-05-25 20:11:00,66.0,35.0,30.18,West,269,0.0,-999.0,32,-99.99,,,-99.99,,2013-05-26 00:11:00,
2013-05-25 20:22:00,64.0,35.0,30.19,West,280,0.0,-999.0,34,-99.99,,,-99.99,,2013-05-26 00:22:00,
2013-05-25 20:32:00,64.0,37.0,30.18,WNW,291,0.0,-999.0,37,-99.99,,,-99.99,,2013-05-26 00:32:00,
2013-05-25 20:42:00,64.0,37.0,30.18,WNW,291,0.0,-999.0,37,-99.99,,,-99.99,,2013-05-26 00:42:00,
2013-05-25 20:52:00,63.0,36.0,30.19,West,271,0.0,-999.0,36,-99.99,,,-99.99,,2013-05-26 00:52:00,
2013-05-25 21:01:00,62.0,35.0,30.19,SW,219,0.0,-999.0,37,-99.99,,,-99.99,,2013-05-26 01:01:00,
2013-05-25 21:11:00,62.0,35.0,30.19,SW,219,0.0,-999.0,37,-99.99,,,-99.99,,2013-05-26 01:11:00,
2013-05-25 21:21:00,61.0,35.0,30.19,NNW,332,0.0,-999.0,37,-99.99,,,-99.99,,2013-05-26 01:21:00,
2013-05-25 21:32:00,61.0,35.0,30.19,NW,325,0.0,-999.0,37,-99.99,,,-99.99,,2013-05-26 01:32:00,
2013-05-25 21:42:00,61.0,35.0,30.19,NW,325,0.0,-999.0,37,-99.99,,,-99.99,,2013-05-26 01:42:00,
2013-05-25 21:52:00,60.0,34.0,30.19,NW,325,0.0,-999.0,38,-99.99,,,-99.99,,2013-05-26 01:52:00,
2013-05-25 22:02:00,59.0,33.0,30.19,NW,325,0.0,-999.0,38,-99.99,,,-99.99,,2013-05-26 02:02:00,
2013-05-25 22:11:00,59.0,33.0,30.19,NW,325,0.0,-999.0,38,-99.99,,,-99.99,,2013-05-26 02:11:00,
2013-05-25 22:21:00,59.0,35.0,30.19,ESE,109,0.0,-999.0,41,-99.99,,,-99.99,,2013-05-26 02:21:00,
2013-05-25 22:32:00,57.0,36.0,30.20,ESE,109,0.0,-999.0,45,-99.99,,,-99.99,,2013-05-26 02:32:00,
2013-05-25 22:42:00,57.0,36.0,30.20,ESE,109,0.0,-999.0,45,-99.99,,,-99.99,,2013-05-26 02:42:00,
2013-05-25 22:52:00,55.0,34.0,30.20,ESE,109,0.0,-999.0,45,-99.99,,,-99.99,,2013-05-26 02:52:00,
2013-05-25 23:01:00,55.0,36.0,30.21,ESE,109,0.0,-999.0,48,-99.99,,,-99.99,,2013-05-26 03:01:00,
2013-05-25 23:11:00,55.0,36.0,30.21,ESE,109,0.0,-999.0,48,-99.99,,,-99.99,,2013-05-26 03:11:00,
2013-05-25 23:22:00,55.0,34.0,30.21,NNW,330,0.0,-999.0,45,-99.99,,,-99.99,,2013-05-26 03:22:00,
2013-05-25 23:33:00,58.0,33.0,30.20,NW,323,0.0,-999.0,39,-99.99,,,-99.99,,2013-05-26 03:33:00,
2013-05-25 23:43:00,58.0,33.0,30.20,NW,323,0.0,-999.0,39,-99.99,,,-99.99,,2013-05-26 03:43:00,
2013-05-25 23:53:00,59.0,32.0,30.20,NW,311,0.0,-999.0,36,-99.99,,,-99.99,,2013-05-26 03:53:00,